Hourly Data Report for October 09, 2015

All times are specified in Local Standard Time (LST). Add 1 hour to adjust for Daylight Saving Time where and when it is observed.

ST LEONARD CS
NEW BRUNSWICK

47°09'28.050" N
67°49'55.014" W
245.00 m
810I001
71019
WIY

Download Data

Hourly Data (October 2015)
Hourly Data Report for October 9, 2015
Temp Definition
°C
Dew Point Temp Definition
°C
Rel Hum Definition
%
Wind Dir Definition
10's deg

Wind Spd Definition
km/h
Visibility Definition
km
Stn Press Definition
kPa
Hmdx Definition


Wind Chill Definition


Weather Definition


TIME
00:00 2.5 -1.1 77 29 5   98.98     LegendNANA
01:00 2.5 -0.7 79 30 6   98.96     LegendNANA
02:00 0.8 -1.3 86 30 6   98.94     LegendNANA
03:00 -1.1 -2.1 93 31 5   98.92   -3 LegendNANA
04:00 -2.1 -2.7 96 11 5   98.88   -4 LegendNANA
05:00 -2.2 -2.7 97 14 5   98.85   -4 LegendNANA
06:00 -2.5 -2.9 97 14 1   98.86   -3 LegendNANA
07:00 -2.7 -3.1 97 9 2   98.84   -3 LegendNANA
08:00 -0.6 -1.4 94 11 2   98.83   -1 LegendNANA
09:00 1.2 0.3 93 15 6   98.80     LegendNANA
10:00 2.5 0.4 86 12 5   98.74     LegendNANA
11:00 3.7 0.6 80 14 6   98.65     LegendNANA
12:00 4.1 0.5 77 12 12   98.51     LegendNANA
13:00 3.6 1.8 88 14 13   98.38     LegendNANA
14:00 3.4 2.2 92 14 13   98.27     LegendNANA
15:00 3.3 2.5 94 10 11   98.12     LegendNANA
16:00 3.4 2.7 96 10 14   97.99     LegendNANA
17:00 3.8 3.3 97 10 16   97.81     LegendNANA
18:00 4.0 3.5 97 11 17   97.66     LegendNANA
19:00 4.3 3.9 97 12 16   97.56     LegendNANA
20:00 4.6 4.2 97 11 10   97.47     LegendNANA
21:00 4.7 4.3 97 1 4   97.38     LegendNANA
22:00 4.6 4.2 98 36 4   97.35     LegendNANA
23:00 4.4 4.1 98 30 13   97.36     LegendNANA

Notes on Data Quality.

Legend

  • E = Estimated
  • M = Missing
  • NA = Not Available
  • ‡ = Partner data that is not subject to review by the National Climate Archives
Date modified: